Flag for Croatia

Past Weather in Bjelovar, Croatia — Yesterday and Last 2 Weeks

Now
58 °F

Cool.


Feels Like: 58 °F
Forecast: 67 / 54 °F
Wind: No wind

Location: Bjelovar

Current Time: Jul 16, 2020 at 5:22:15 am

Latest Report: Jul 16, 2020 at 2:00 am


Visibility: N/A

Pressure: 29.96 "Hg

Humidity: 84%

Dew Point: 53 °F

Location of BjelovarLocation

Past Weather in Bjelovar — Graph

°F

Bjelovar Temperature Yesterday

Maximum temperature yesterday: 80 °F (at 4:00 pm)
Minimum temperature yesterday: 54 °F (at 6:00 am)
Average temperature yesterday: 70 °F

High & Low Weather Summary for the Past Weeks

 TemperatureHumidityPressure
High91 °F (Jul 1, 5:00 pm)98% (Jul 2, 6:00 am)30.26 "Hg (Jul 2, 6:00 am)
Low50 °F (Jul 8, 5:00 am)31% (Jul 9, 7:00 pm)29.74 "Hg (Jul 6, 7:00 pm)
Average72 °F59%30.01 "Hg
* Reported Jul 1 2:00 am — Jul 16 2:00 am, Bjelovar. Weather by CustomWeather, © 2020

Note: Actual official high and low records may vary slightly from our data, if they occured in-between our weather recording intervals... More about our weather records

Bjelovar Weather History for the Previous 24 Hours

Scroll right to see more
 ConditionsComfort  
Time TempWeatherWind HumidityBarometerVisibility
2:00 am
Thu, Jul 16
58 °FCool.No wind84%29.96 "HgN/A
11:00 pm
Wed, Jul 15
64 °FMild.No wind76%29.95 "HgN/A
10:00 pm68 °FPassing clouds.1 mph63%29.94 "Hg6 mi
9:00 pm71 °FPassing clouds.1 mph52%29.92 "Hg6 mi
8:00 pm75 °FPassing clouds.1 mph41%29.91 "Hg6 mi
7:00 pm76 °FMild.1 mph38%29.90 "HgN/A
6:00 pm78 °FPleasantly warm.1 mph35%29.90 "HgN/A
5:00 pm80 °FPleasantly warm.1 mph33%29.90 "HgN/A
4:00 pm80 °FPleasantly warm.1 mph35%29.92 "HgN/A
3:00 pm77 °FPartly sunny.1 mph37%29.93 "Hg6 mi
2:00 pm77 °FPartly sunny.1 mph36%29.94 "Hg6 mi
1:00 pm76 °FPartly sunny.1 mph38%29.95 "Hg6 mi
12:00 pm75 °FScattered clouds.2 mph39%29.96 "Hg6 mi
11:00 am73 °FPassing clouds.1 mph46%29.96 "Hg6 mi
10:00 am72 °FPassing clouds.1 mph48%29.97 "Hg6 mi
9:00 am69 °FPassing clouds.1 mph56%29.96 "Hg6 mi
8:00 am64 °FPassing clouds.1 mph69%29.97 "Hg6 mi
7:00 am58 °FCool.1 mph78%29.98 "HgN/A
6:00 am54 °FCool.1 mph86%29.97 "HgN/A
5:00 am55 °FCool.No wind86%29.98 "HgN/A
Weather by CustomWeather, © 2020

See weather overview